| time (UTC) | temp F | wind direction | speed MPH | gust MPH | rain 1hr in | rain 24hr in | rain mn in | humidity % | barometer mb |
| 20260506051331 | 54 | 256 | 5.0 | 10.0 | 0.00 | 0.17 | 0.08 | 78 | 1018.1 |
| 20260506050317 | 54 | 260 | 5.0 | 10.0 | 0.00 | 0.17 | 0.08 | 77 | 1018.0 |
| 20260506044357 | 54 | 266 | 2.0 | 9.0 | 0.00 | 0.28 | 0.08 | 78 | 1017.8 |
| 20260506043335 | 54 | 316 | 3.0 | 8.0 | 0.00 | 0.28 | 0.08 | 78 | 1017.7 |
| 20260506042332 | 54 | 264 | 2.0 | 7.0 | 0.00 | 0.28 | 0.08 | 78 | 1017.6 |
| 20260506041332 | 55 | 267 | 4.0 | 8.0 | 0.00 | 0.28 | 0.08 | 79 | 1017.5 |
| 20260506040317 | 55 | 264 | 3.0 | 7.0 | 0.00 | 0.28 | 0.08 | 79 | 1017.3 |
| 20260506035323 | 55 | 271 | 1.0 | 7.0 | 0.00 | 0.28 | 0.08 | 79 | 1017.2 |
| 20260506034327 | 55 | 345 | 4.0 | 9.0 | 0.00 | 0.31 | 0.08 | 78 | 1017.1 |
| 20260506033328 | 55 | 345 | 4.0 | 9.0 | 0.00 | 0.31 | 0.08 | 77 | 1016.8 |
| 20260506032316 | 55 | 345 | 6.0 | 12.0 | 0.00 | 0.31 | 0.08 | 77 | 1016.7 |
| 20260506031326 | 56 | 345 | 5.0 | 10.0 | 0.00 | 0.31 | 0.08 | 77 | 1016.6 |
| 20260506030325 | 56 | 345 | 4.0 | 10.0 | 0.00 | 0.31 | 0.08 | 76 | 1016.5 |
| 20260506025326 | 56 | 345 | 5.0 | 10.0 | 0.00 | 0.31 | 0.08 | 76 | 1016.4 |
| 20260506024329 | 56 | 345 | 5.0 | 12.0 | 0.00 | 0.36 | 0.08 | 76 | 1016.3 |
| 20260506023329 | 56 | 259 | 6.0 | 14.0 | 0.00 | 0.36 | 0.08 | 76 | 1016.2 |
| 20260506022318 | 57 | 296 | 9.0 | 16.0 | 0.00 | 0.36 | 0.08 | 75 | 1016.1 |
| 20260506021326 | 57 | 276 | 10.0 | 15.0 | 0.00 | 0.36 | 0.08 | 74 | 1015.9 |
| 20260506020327 | 57 | 264 | 8.0 | 15.0 | 0.00 | 0.36 | 0.08 | 73 | 1015.9 |
| 20260506015340 | 57 | 252 | 8.0 | 17.0 | 0.00 | 0.36 | 0.08 | 74 | 1015.9 |
| 20260506014318 | 57 | 286 | 9.0 | 17.0 | 0.00 | 0.38 | 0.08 | 73 | 1015.7 |
| 20260506013321 | 57 | 248 | 8.0 | 16.0 | 0.00 | 0.38 | 0.08 | 74 | 1015.8 |
| 20260506012356 | 58 | 254 | 9.0 | 15.0 | 0.00 | 0.38 | 0.08 | 73 | 1015.8 |
| 20260506011324 | 58 | 271 | 11.0 | 18.0 | 0.00 | 0.38 | 0.08 | 74 | 1015.9 |
| 20260506010318 | 58 | 274 | 9.0 | 18.0 | 0.00 | 0.38 | 0.08 | 73 | 1015.8 |
| 20260506005338 | 59 | 258 | 11.0 | 16.0 | 0.00 | 0.38 | 0.08 | 73 | 1015.7 |
| 20260506004326 | 59 | 263 | 10.0 | 17.0 | 0.00 | 0.42 | 0.08 | 73 | 1015.6 |
| 20260506003327 | 59 | 249 | 12.0 | 18.0 | 0.00 | 0.42 | 0.08 | 72 | 1015.5 |
| 20260506002325 | 60 | 256 | 10.0 | 19.0 | 0.00 | 0.42 | 0.08 | 72 | 1015.4 |
| 20260506001348 | 60 | 239 | 11.0 | 18.0 | 0.00 | 0.42 | 0.08 | 71 | 1015.3 |
| 20260506000330 | 60 | 260 | 12.0 | 19.0 | 0.00 | 0.42 | 0.08 | 71 | 1015.4 |
| 20260505234326 | 61 | 298 | 13.0 | 20.0 | 0.00 | 0.44 | 0.08 | 70 | 1015.3 |
| 20260505233316 | 62 | 255 | 11.0 | 18.0 | 0.00 | 0.44 | 0.08 | 70 | 1015.3 |
| 20260505232326 | 62 | 257 | 11.0 | 18.0 | 0.00 | 0.44 | 0.08 | 69 | 1015.2 |
| 20260505231316 | 62 | 270 | 9.0 | 16.0 | 0.00 | 0.44 | 0.08 | 69 | 1015.2 |
| 20260505230343 | 63 | 264 | 8.0 | 16.0 | 0.00 | 0.44 | 0.08 | 68 | 1015.2 |
| 20260505225327 | 63 | 258 | 12.0 | 21.0 | 0.00 | 0.44 | 0.08 | 68 | 1015.2 |
| 20260505224317 | 62 | 269 | 10.0 | 15.0 | 0.00 | 0.44 | 0.08 | 68 | 1015.2 |
| 20260505223344 | 63 | 266 | 6.0 | 13.0 | 0.00 | 0.44 | 0.08 | 68 | 1015.2 |
| 20260505222341 | 63 | 265 | 7.0 | 16.0 | 0.00 | 0.44 | 0.08 | 68 | 1015.3 |
| 20260505221345 | 62 | 268 | 7.0 | 15.0 | 0.00 | 0.44 | 0.08 | 69 | 1015.4 |
| 20260505220334 | 63 | 262 | 9.0 | 13.0 | 0.00 | 0.44 | 0.08 | 68 | 1015.4 |
| 20260505215319 | 63 | 258 | 8.0 | 12.0 | 0.00 | 0.44 | 0.08 | 68 | 1015.3 |
| 20260505214332 | 63 | 274 | 5.0 | 12.0 | 0.00 | 0.44 | 0.08 | 69 | 1015.4 |
| 20260505213315 | 62 | 242 | 7.0 | 13.0 | 0.00 | 0.44 | 0.08 | 68 | 1015.5 |
| 20260505212348 | 62 | 252 | 7.0 | 14.0 | 0.00 | 0.44 | 0.08 | 68 | 1015.6 |
| 20260505211325 | 62 | 249 | 7.0 | 10.0 | 0.00 | 0.44 | 0.08 | 69 | 1015.6 |
| 20260505210325 | 62 | 259 | 8.0 | 12.0 | 0.00 | 0.44 | 0.08 | 69 | 1015.8 |
| 20260505205314 | 62 | 255 | 9.0 | 12.0 | 0.00 | 0.44 | 0.08 | 69 | 1015.7 |
| 20260505204321 | 61 | 239 | 4.0 | 13.0 | 0.00 | 0.44 | 0.08 | 69 | 1015.7 |
| 20260505203327 | 61 | 242 | 9.0 | 14.0 | 0.00 | 0.44 | 0.08 | 69 | 1015.6 |
| 20260505202313 | 61 | 252 | 9.0 | 16.0 | 0.00 | 0.44 | 0.08 | 69 | 1015.7 |
| 20260505201319 | 61 | 250 | 7.0 | 14.0 | 0.00 | 0.44 | 0.08 | 70 | 1015.7 |
| 20260505195344 | 61 | 283 | 8.0 | 13.0 | 0.00 | 0.44 | 0.08 | 70 | 1016.0 |
| 20260505194314 | 61 | 260 | 6.0 | 13.0 | 0.00 | 0.44 | 0.08 | 70 | 1016.0 |
| 20260505193338 | 60 | 234 | 7.0 | 11.0 | 0.00 | 0.44 | 0.08 | 72 | 1016.0 |
| 20260505192324 | 59 | 239 | 8.0 | 12.0 | 0.00 | 0.44 | 0.08 | 71 | 1016.0 |
| 20260505191334 | 59 | 251 | 9.0 | 14.0 | 0.00 | 0.44 | 0.08 | 71 | 1016.0 |
| 20260505190332 | 59 | 247 | 7.0 | 15.0 | 0.00 | 0.44 | 0.08 | 72 | 1016.0 |
| 20260505185322 | 59 | 248 | 9.0 | 15.0 | 0.00 | 0.44 | 0.08 | 71 | 1015.9 |
| 20260505184326 | 59 | 257 | 9.0 | 15.0 | 0.00 | 0.44 | 0.08 | 72 | 1015.9 |
| 20260505183333 | 59 | 252 | 7.0 | 13.0 | 0.00 | 0.44 | 0.08 | 71 | 1016.0 |
| 20260505182314 | 58 | 258 | 6.0 | 12.0 | 0.00 | 0.44 | 0.08 | 72 | 1016.0 |
| 20260505181319 | 58 | 278 | 8.0 | 13.0 | 0.00 | 0.44 | 0.08 | 72 | 1015.9 |
| 20260505180322 | 58 | 233 | 8.0 | 12.0 | 0.00 | 0.44 | 0.08 | 72 | 1015.8 |
| 20260505175329 | 58 | 244 | 9.0 | 13.0 | 0.00 | 0.44 | 0.08 | 71 | 1015.8 |
| 20260505174336 | 57 | 251 | 6.0 | 15.0 | 0.00 | 0.44 | 0.08 | 71 | 1015.6 |
| 20260505173333 | 57 | 260 | 7.0 | 15.0 | 0.00 | 0.44 | 0.08 | 71 | 1015.6 |
| 20260505172323 | 57 | 264 | 9.0 | 16.0 | 0.00 | 0.44 | 0.08 | 71 | 1015.5 |
| 20260505171325 | 56 | 273 | 8.0 | 13.0 | 0.00 | 0.44 | 0.08 | 70 | 1015.5 |
| 20260505170340 | 56 | 262 | 9.0 | 14.0 | 0.00 | 0.44 | 0.08 | 70 | 1015.7 |
| 20260505165329 | 56 | 307 | 7.0 | 11.0 | 0.00 | 0.44 | 0.08 | 71 | 1015.7 |
| 20260505164322 | 55 | 258 | 7.0 | 13.0 | 0.00 | 0.44 | 0.08 | 70 | 1015.6 |
| 20260505163346 | 55 | 264 | 7.0 | 13.0 | 0.00 | 0.44 | 0.08 | 70 | 1015.6 |
| 20260505162340 | 55 | 281 | 8.0 | 13.0 | 0.00 | 0.44 | 0.08 | 69 | 1015.5 |
| 20260505161324 | 55 | 273 | 9.0 | 14.0 | 0.00 | 0.44 | 0.08 | 69 | 1015.4 |
| 20260505160346 | 55 | 266 | 6.0 | 13.0 | 0.00 | 0.44 | 0.08 | 69 | 1015.4 |
| 20260505153320 | 54 | 254 | 6.0 | 13.0 | 0.00 | 0.44 | 0.08 | 67 | 1015.0 |
| 20260505152322 | 54 | 311 | 4.0 | 12.0 | 0.00 | 0.44 | 0.08 | 68 | 1015.1 |
| 20260505151328 | 54 | 275 | 6.0 | 10.0 | 0.00 | 0.44 | 0.08 | 67 | 1014.9 |
| 20260505150313 | 54 | 285 | 4.0 | 12.0 | 0.00 | 0.44 | 0.08 | 68 | 1014.8 |
| 20260505140311 | 53 | 258 | 4.0 | 9.0 | 0.00 | 0.44 | 0.08 | 70 | 1014.5 |
| 20260505124316 | 52 | 345 | 5.0 | 11.0 | 0.00 | 0.44 | 0.08 | 70 | 1014.3 |
| 20260505123326 | 52 | 345 | 5.0 | 10.0 | 0.00 | 0.44 | 0.08 | 70 | 1014.3 |
| 20260505122319 | 52 | 345 | 4.0 | 9.0 | 0.00 | 0.44 | 0.08 | 70 | 1014.3 |
| 20260505121346 | 52 | 345 | 4.0 | 12.0 | 0.00 | 0.44 | 0.08 | 71 | 1014.4 |
| 20260505120312 | 52 | 345 | 6.0 | 13.0 | 0.00 | 0.44 | 0.08 | 71 | 1014.2 |
| 20260505115317 | 52 | 345 | 6.0 | 11.0 | 0.00 | 0.44 | 0.08 | 71 | 1014.2 |
| 20260505114326 | 52 | 345 | 5.0 | 12.0 | 0.00 | 0.44 | 0.08 | 71 | 1014.1 |
| 20260505113330 | 52 | 345 | 3.0 | 10.0 | 0.00 | 0.44 | 0.08 | 71 | 1014.1 |
| 20260505111326 | 52 | 345 | 7.0 | 12.0 | 0.00 | 0.44 | 0.08 | 71 | 1014.1 |
| 20260505110327 | 52 | 345 | 5.0 | 10.0 | 0.00 | 0.44 | 0.08 | 71 | 1014.2 |
| 20260505101322 | 51 | 345 | 4.0 | 10.0 | 0.00 | 0.44 | 0.08 | 72 | 1014.4 |
| 20260505100330 | 51 | 345 | 3.0 | 6.0 | 0.00 | 0.44 | 0.08 | 72 | 1014.6 |
| 20260505095319 | 51 | 345 | 4.0 | 8.0 | 0.00 | 0.44 | 0.08 | 72 | 1014.6 |
| 20260505094326 | 51 | 345 | 5.0 | 8.0 | 0.01 | 0.44 | 0.08 | 72 | 1014.4 |
| 20260505093329 | 51 | 345 | 5.0 | 8.0 | 0.01 | 0.44 | 0.08 | 72 | 1014.5 |
| 20260505092353 | 51 | 345 | 2.0 | 8.0 | 0.01 | 0.44 | 0.08 | 72 | 1014.5 |
| 20260505091324 | 51 | 345 | 2.0 | 8.0 | 0.02 | 0.44 | 0.08 | 72 | 1014.7 |
| 20260505090325 | 51 | 345 | 4.0 | 5.0 | 0.04 | 0.44 | 0.08 | 72 | 1014.7 |
| 20260505085334 | 51 | 345 | 3.0 | 6.0 | 0.04 | 0.44 | 0.08 | 71 | 1015.1 |
| 20260505084341 | 51 | 345 | 4.0 | 9.0 | 0.03 | 0.43 | 0.07 | 71 | 1015.0 |
| 20260505083347 | 51 | 345 | 5.0 | 10.0 | 0.04 | 0.43 | 0.07 | 71 | 1015.0 |
| 20260505082333 | 51 | 345 | 3.0 | 6.0 | 0.04 | 0.43 | 0.07 | 71 | 1015.0 |
| 20260505081328 | 51 | 345 | 3.0 | 9.0 | 0.04 | 0.42 | 0.06 | 71 | 1015.2 |
| 20260505080326 | 51 | 345 | 3.0 | 6.0 | 0.04 | 0.40 | 0.04 | 71 | 1015.1 |
| 20260505075318 | 51 | 345 | 3.0 | 5.0 | 0.04 | 0.40 | 0.04 | 71 | 1015.0 |
| 20260505074324 | 51 | 345 | 2.0 | 6.0 | 0.04 | 0.40 | 0.04 | 71 | 1015.2 |
| 20260505073313 | 51 | 345 | 2.0 | 9.0 | 0.04 | 0.39 | 0.03 | 70 | 1015.1 |
| 20260505072320 | 51 | 345 | 4.0 | 8.0 | 0.05 | 0.39 | 0.03 | 70 | 1015.3 |
| 20260505071322 | 51 | 345 | 4.0 | 6.0 | 0.05 | 0.38 | 0.02 | 70 | 1015.4 |
| 20260505070351 | 51 | 345 | 2.0 | 6.0 | 0.05 | 0.36 | 0.00 | 70 | 1015.3 |
| 20260505065324 | 51 | 345 | 2.0 | 5.0 | 0.06 | 0.36 | 0.00 | 70 | 1015.5 |
| 20260505064342 | 51 | 345 | 4.0 | 10.0 | 0.06 | 0.36 | 0.36 | 70 | 1015.4 |
| 20260505063321 | 51 | 345 | 4.0 | 8.0 | 0.05 | 0.35 | 0.35 | 70 | 1015.3 |
| 20260505062332 | 51 | 345 | 4.0 | 8.0 | 0.04 | 0.34 | 0.34 | 70 | 1015.0 |
| 20260505061320 | 51 | 345 | 5.0 | 10.0 | 0.04 | 0.33 | 0.33 | 70 | 1015.4 |
| 20260505060325 | 51 | 345 | 5.0 | 10.0 | 0.02 | 0.31 | 0.31 | 70 | 1015.4 |
| 20260505055319 | 50 | 345 | 7.0 | 11.0 | 0.02 | 0.30 | 0.30 | 70 | 1015.3 |